Showing default

NEE 02 KRYSAOR, 39441

Orbit data source: Space-Track

NEE 02 KRYSAOR, 39441 is a payload satellite owned by EXA (EC) in SSO that was launched on Thu, 21 Nov 2013 UTC via a DNEPR launch vehicle from the Orenburg, Russia (OREN). Payload-class satellites include a variety of spacecraft equipped with specific instruments for various scientific and technological missions. These include communications satellites like Starlink; space stations such as the ISS; scientific satellites like the Hubble; Earth observation satellites from companies like Planet Labs, Umbra, and HawkEye 360; GPS; miniature CubeSats for education and research; and military/defense satellites.

Loading next visibility...
Identifier
39441, 2013-066AB
Orbit
SSO
Country
Flag of ECEC / ECU
Related business
Manufacturer
EXA
Mission
Operational Civil Technology
Bus & Motor
CUBESAT 1U, Unknown motor
Mass
1 kg wet, 1 kg dry
Launch date (UTC)
2013-11-21 (12 years ago)
Launch vehicle
DNEPR
Launch site
Orenburg, Russia (OREN)
Object type
Payload
Rocket body
Debris
Shape & HBR
Box + 2 Pan, 0.1 m
Radar Cross Section
0.022 m², Small (<0.1 m²)

Expand to show TLE details & history
Last TLE update: 12 hours ago

TLE from 12 hours ago
0 NEE 02 KRYSAOR
1 39441U 13066AB  25300.36284045  .00003481  00000-0  39570-3 0  9992
2 39441  97.8661 236.7664 0069474 112.1017 248.7593 14.85159627641622
Epoch: 2025-10-27T08:42Z
TLE epoch observation values (Epoch: 2025-10-27T08:42:29.414Z)
Latitude
-0.00004°
Longitude
70.17808°
Altitude
634.007 km
Speed
7.532 km/s
True Right ascension
15h 47m 03s
True Declination
0° 00' 00"
Sunlit
Object was in daylight at epoch
Visualization orbit readout
Latitude
Unknown
Longitude
Unknown
Altitude
Unknown
Speed
Unknown
Apparent Right ascension
Unknown
Apparent Declination
Unknown
Sunlit
N/A
Visualization observer readout
Local Sidereal Time
15:48:06
Azimuth
Unknown
Elevation
Unknown
Doppler factor
Unknown
Orbital elements
Apogee altitude
658.667 km
Perigee altitude
561.567 km
Semi-major axis
6,988.254 km
Eccentricity
0.00695
Inclination
97.8661°
RAAN
236.7664°
Arg. of periapsis
112.1017°
True anomaly
248.01962°
Mean anomaly
248.7593°
Eccentric anomaly
248.38922°
Mean motion
3.71527 °/min
Orbital period
96.9 mins
BSTAR
0.0003957
Loading maneuver chart data...
Computing Atmospheric mass density...
Loading historical data...
Loading historical data...
Loading historical data...
Loading historical data...
Loading historical data...
Loading historical data...
Loading historical data...

Documentation

Showing up to 5 results
|